Toronto, Ontario

8:20 AM EDT on July 23, 2017 (GMT -0400)
Toronto

Weather History for CYTZ - April, 2014

Change the Weather History Date:

Monday, April 14, 2014

  Actual Average Record
Temperature  
Mean Temperature 50 °F -  
Max Temperature 57 °F 55 °F 64 °F (1999)
Min Temperature 41 °F 41 °F 32 °F (1997)
Degree Days  
Heating Degree Days 16    
Moisture  
Dew Point 45 °F    
Average Humidity 87    
Maximum Humidity 100    
Minimum Humidity 68    
Precipitation  
Precipitation 0.31 in 0.08 in - ()
Sea Level Pressure  
Sea Level Pressure 29.60 in    
Wind  
Wind Speed 11 mph ()    
Max Wind Speed 25 mph    
Max Gust Speed 32 mph    
Visibility 6.7 miles    
Events Fog , Rain    
Averages and records for this station are not official NWS values.
T = Trace of Precipitation, MM = Missing Value Source: Averaged Metar Reports

Daily Weather History Graph

Daily Weather History Graph

Search for Another Location

Airport or City:

Trip Planner

Search our weather history database for the weather conditions in past years. The results will help you decide how hot, cold, wet, or windy it might be!

Date:

Astronomy

Apr. 14, 2014 Rise Set
Actual Time 6:36 AM EDT 7:59 PM EDT
Civil Twilight 6:06 AM EDT 8:29 PM EDT
Nautical Twilight 5:31 AM EDT 9:05 PM EDT
Astronomical Twilight 4:52 AM EDT 9:44 PM EDT
Moon 7:36 PM EDT (4/14) 6:09 AM EDT (4/14)
Length of Visible Light 14h 22m
Length of Day
13h 23m
Full, 100% of the Moon is Illuminated
Apr 14
Full
Apr 15
Full
Apr 22
Last Quarter
Apr 29
New
May 6
First Quarter

Hourly Weather History & Observations

Time (EDT) Temp. Windchill Dew Point Humidity Pressure Visibility Wind Dir Wind Speed Gust Speed Precip Events Conditions
12:00 AM 46.4 °F 41.5 °F 44.6 °F 93% 29.75 in 9.0 mi East 10.4 mph - N/A   Partly Cloudy
1:00 AM 48.2 °F - 46.4 °F 93% 29.72 in 9.0 mi ENE 11.5 mph - N/A   Mostly Cloudy
2:00 AM 48 °F - 45 °F 86% 29.69 in 9 mi ENE 12.7 mph - -  
2:00 AM 48.2 °F - 44.6 °F 87% 29.69 in 9.0 mi ENE 12.7 mph - N/A   Partly Cloudy
3:00 AM 48.2 °F - 44.6 °F 87% 29.67 in 9.0 mi East 11.5 mph - N/A   Mostly Cloudy
5:00 AM 48.2 °F - 44.6 °F 87% 29.63 in 9.0 mi East 8.1 mph - N/A   Mostly Cloudy
6:00 AM 46.4 °F 41.5 °F 44.6 °F 93% 29.60 in 8.0 mi ENE 10.4 mph - N/A   Mostly Cloudy
7:00 AM 48.2 °F - 44.6 °F 87% 29.58 in 9.0 mi East 8.1 mph - N/A   Mostly Cloudy
8:00 AM 49 °F - 43 °F 74% 29.57 in 10 mi East 6.9 mph - -  
8:00 AM 48.2 °F - 42.8 °F 82% 29.56 in 9.0 mi ENE 8.1 mph - N/A   Scattered Clouds
9:00 AM 53.6 °F - 44.6 °F 72% 29.55 in 9.0 mi Calm Calm - N/A   Mostly Cloudy
10:00 AM 55.4 °F - 46.4 °F 72% 29.53 in 9.0 mi Variable 3.5 mph - N/A   Mostly Cloudy
11:00 AM 53.6 °F - 44.6 °F 72% 29.53 in 9.0 mi SW 4.6 mph - N/A   Mostly Cloudy
11:30 AM 53.6 °F - 44.6 °F 72% 29.54 in 9.0 mi SW 16.1 mph - N/A   Scattered Clouds
12:00 PM 55.4 °F - 48.2 °F 77% 29.55 in 9.0 mi SW 24.2 mph 32.2 mph N/A   Mostly Cloudy
1:00 PM 53.6 °F - 48.2 °F 82% 29.55 in 9.0 mi SW 25.3 mph - N/A   Overcast
1:14 PM 53.6 °F - 48.2 °F 82% 29.55 in 9.0 mi SSW 24.2 mph 29.9 mph N/A Rain Light Rain
2:00 PM 50 °F - 49 °F 95% 29.56 in 7 mi SW 18.4 mph - - Rain Light Rain
2:00 PM 50.0 °F - 48.2 °F 94% 29.56 in 7.0 mi SW 18.4 mph 24.2 mph N/A Rain Light Rain
2:02 PM 50.0 °F - 48.2 °F 94% 29.56 in 5.0 mi SSW 17.3 mph 24.2 mph N/A Rain Light Rain
2:33 PM 48.2 °F - 46.4 °F 93% 29.57 in 2.2 mi SSW 13.8 mph 19.6 mph N/A Rain Light Rain
2:35 PM 48.2 °F - 46.4 °F 93% 29.57 in 1.0 mi SSW 13.8 mph - N/A Rain Light Rain
2:36 PM 48.2 °F - 46.4 °F 93% 29.57 in 0.8 mi SSW 12.7 mph 18.4 mph N/A Rain Light Rain
3:00 PM 50.0 °F - 50.0 °F 100% 29.56 in 0.4 mi SSW 19.6 mph - N/A Fog , Rain Light Rain
4:00 PM 50.0 °F - 50.0 °F 100% 29.54 in 0.1 mi SSW 19.6 mph - N/A Fog , Rain Light Rain
4:12 PM 48.2 °F - 48.2 °F 100% 29.55 in 0.1 mi SSW 15.0 mph 20.7 mph N/A Fog Fog
4:16 PM 48.2 °F - 48.2 °F 100% 29.54 in 0.1 mi SSW 13.8 mph 20.7 mph N/A Fog Fog
4:20 PM 48.2 °F - 48.2 °F 100% 29.54 in 0.1 mi SSW 12.7 mph 19.6 mph N/A Fog Fog
5:00 PM 48.2 °F - 48.2 °F 100% 29.55 in 0.1 mi WSW 6.9 mph - N/A Fog Fog
5:34 PM 48.2 °F - 48.2 °F 100% 29.57 in 1.0 mi West 10.4 mph 21.9 mph N/A   Overcast
5:35 PM 48.2 °F - 48.2 °F 100% 29.57 in 1.5 mi West 9.2 mph 21.9 mph N/A   Overcast
5:37 PM 48.2 °F - 48.2 °F 100% 29.58 in 3.0 mi WSW 9.2 mph 21.9 mph N/A   Overcast
5:39 PM 48.2 °F - 48.2 °F 100% 29.57 in 9.0 mi West 8.1 mph 21.9 mph N/A   Overcast
5:41 PM 48.2 °F - 48.2 °F 100% 29.57 in 9.0 mi West 6.9 mph 17.3 mph N/A   Overcast
6:00 PM 51.8 °F - 51.8 °F 100% 29.59 in 9.0 mi West 13.8 mph - N/A   Overcast
6:14 PM 57.2 °F - 51.8 °F 82% 29.60 in 9.0 mi West 12.7 mph - N/A   Overcast
7:00 PM 53.6 °F - 46.4 °F 77% 29.62 in 9.0 mi WNW 17.3 mph 25.3 mph N/A   Overcast
8:00 PM 48 °F - 41 °F 68% 29.65 in 10 mi WNW 16.1 mph - -  
8:00 PM 48.2 °F - 41.0 °F 76% 29.65 in 9.0 mi WNW 12.7 mph 20.7 mph N/A   Partly Cloudy
9:00 PM 44.6 °F 37.4 °F 37.4 °F 76% 29.68 in 9.0 mi WNW 16.1 mph - N/A   Scattered Clouds
10:00 PM 42.8 °F 37.5 °F 35.6 °F 76% 29.71 in 9.0 mi NNW 9.2 mph - N/A   Overcast
10:24 PM 42.8 °F 36.6 °F 35.6 °F 76% 29.71 in 9.0 mi NW 11.5 mph - N/A Rain Light Rain
10:34 PM 42.8 °F 36.2 °F 35.6 °F 76% 29.71 in 9.0 mi WNW 12.7 mph - N/A   Overcast
11:00 PM 42.8 °F 38.6 °F 33.8 °F 70% 29.71 in 9.0 mi NW 6.9 mph - N/A   Overcast
11:27 PM 42.8 °F 38.6 °F 33.8 °F 70% 29.70 in 9.0 mi NNW 6.9 mph - N/A Rain Light Rain
11:52 PM 41.0 °F 35.2 °F 35.6 °F 81% 29.70 in 9.0 mi WNW 9.2 mph - N/A   Overcast